Gambell, AK

9:48 AM AKDT on October 22, 2017 (GMT -0800)
Gambell

Weather History for PAGM - August, 2013

Change the Weather History Date:

Sunday, August 11, 2013

  Actual Average Record
Temperature  
Mean Temperature 40 °F -  
Max Temperature 42 °F 48 °F 57 °F (2012)
Min Temperature 39 °F 43 °F 39 °F (2006)
Degree Days  
Heating Degree Days 24    
Moisture  
Dew Point 38 °F    
Average Humidity 85    
Maximum Humidity 93    
Minimum Humidity 81    
Precipitation  
Precipitation 0.03 in - - ()
Sea Level Pressure  
Sea Level Pressure 29.99 in    
Wind  
Wind Speed 12 mph (NE)    
Max Wind Speed 15 mph    
Max Gust Speed -    
Visibility 10 miles    
Events      
Averages and records for this station are not official NWS values.
T = Trace of Precipitation, MM = Missing Value Source: NWS Daily Summary

Daily Weather History Graph

Daily Weather History Graph

Search for Another Location

Airport or City:

Trip Planner

Search our weather history database for the weather conditions in past years. The results will help you decide how hot, cold, wet, or windy it might be!

Date:

Astronomy

Aug. 11, 2013 Rise Set
Actual Time 7:09 AM AKDT 11:51 PM AKDT
Civil Twilight 6:02 AM AKDT 12:58 AM AKDT
Nautical Twilight 4:04 AM AKDT 2:59 AM AKDT
Astronomical Twilight Sun does not rise Sun does not rise
Moon 2:23 PM AKDT (8/11) 11:57 PM AKDT (8/11)
Length of Visible Light 18h 55m
Length of Day
16h 42m
Waxing Crescent, 23% of the Moon is Illuminated
Aug 11
Waxing Crescent
Aug 14
First Quarter
Aug 20
Full
Aug 28
Last Quarter
Sep 5
New

Hourly Weather History & Observations

Time (AKDT) Temp. Windchill Dew Point Humidity Pressure Visibility Wind Dir Wind Speed Gust Speed Precip Events Conditions
12:16 AM 42.8 °F 35.8 °F 39.2 °F 87% 29.89 in 10.0 mi NE 13.8 mph - N/A   Overcast
12:36 AM 42.8 °F 36.2 °F 39.2 °F 87% 29.90 in 10.0 mi NNE 12.7 mph - N/A   Overcast
12:56 AM 41.0 °F 34.3 °F 37.4 °F 87% 29.91 in 10.0 mi NNE 11.5 mph - N/A   Overcast
1:16 AM 41.0 °F 34.3 °F 37.4 °F 87% 29.91 in 10.0 mi NNE 11.5 mph - N/A   Overcast
1:36 AM 41.0 °F 34.7 °F 37.4 °F 87% 29.91 in 10.0 mi NE 10.4 mph - N/A   Overcast
1:56 AM 41.0 °F 34.3 °F 37.4 °F 87% 29.91 in 10.0 mi NNE 11.5 mph - N/A   Overcast
2:16 AM 41.0 °F 33.9 °F 37.4 °F 87% 29.91 in 10.0 mi NE 12.7 mph - N/A   Overcast
2:36 AM 41.0 °F 33.9 °F 39.2 °F 93% 29.92 in 10.0 mi NE 12.7 mph - N/A   Overcast
2:56 AM 41.0 °F 35.8 °F 37.4 °F 87% 29.93 in 10.0 mi NNE 8.1 mph - N/A   Overcast
3:16 AM 41.0 °F 34.7 °F 37.4 °F 87% 29.93 in 10.0 mi NNE 10.4 mph - N/A   Overcast
3:36 AM 41.0 °F 34.7 °F 37.4 °F 87% 29.93 in 10.0 mi NNE 10.4 mph - N/A   Overcast
3:56 AM 41.0 °F 34.7 °F 37.4 °F 87% 29.93 in 10.0 mi NNE 10.4 mph - N/A   Overcast
4:16 AM 39.2 °F 32.0 °F 37.4 °F 93% 29.94 in 10.0 mi NNE 11.5 mph - N/A   Overcast
4:36 AM 39.2 °F 31.6 °F 37.4 °F 93% 29.94 in 10.0 mi NE 12.7 mph - N/A   Overcast
4:56 AM 41.0 °F 33.5 °F 37.4 °F 87% 29.94 in 9.0 mi NE 13.8 mph - N/A   Overcast
5:16 AM 41.0 °F 34.3 °F 37.4 °F 87% 29.94 in 10.0 mi NE 11.5 mph - N/A   Overcast
5:36 AM 41.0 °F 34.3 °F 37.4 °F 87% 29.94 in 10.0 mi NE 11.5 mph - N/A   Overcast
5:56 AM 41.0 °F 33.9 °F 37.4 °F 87% 29.94 in 10.0 mi NE 12.7 mph - N/A   Overcast
6:16 AM 41.0 °F 33.5 °F 37.4 °F 87% 29.94 in 10.0 mi NE 13.8 mph - N/A   Overcast
6:36 AM 41.0 °F 33.5 °F 37.4 °F 87% 29.94 in 10.0 mi NE 13.8 mph - N/A   Overcast
6:56 AM 41.0 °F 34.3 °F 37.4 °F 87% 29.94 in 10.0 mi NE 11.5 mph - N/A   Overcast
7:16 AM 41.0 °F 34.7 °F 37.4 °F 87% 29.95 in 9.0 mi NE 10.4 mph - N/A   Overcast
7:36 AM 41.0 °F 34.7 °F 37.4 °F 87% 29.95 in 10.0 mi NE 10.4 mph - N/A   Overcast
7:56 AM 41.0 °F 34.7 °F 37.4 °F 87% 29.96 in 10.0 mi NE 10.4 mph - N/A   Overcast
8:16 AM 41.0 °F 34.7 °F 37.4 °F 87% 29.96 in 10.0 mi NE 10.4 mph - N/A   Overcast
8:36 AM 41.0 °F 35.2 °F 37.4 °F 87% 29.97 in 10.0 mi NE 9.2 mph - N/A   Overcast
8:56 AM 41.0 °F 34.7 °F 37.4 °F 87% 29.97 in 10.0 mi NNE 10.4 mph - N/A   Overcast
9:16 AM 41.0 °F 34.7 °F 37.4 °F 87% 29.97 in 9.0 mi NNE 10.4 mph - N/A   Overcast
9:36 AM 41.0 °F 34.3 °F 37.4 °F 87% 29.97 in 7.0 mi NNE 11.5 mph - 0.01 in   Overcast
9:56 AM 41.0 °F 34.3 °F 37.4 °F 87% 29.98 in 9.0 mi NNE 11.5 mph - 0.02 in   Overcast
10:16 AM 41.0 °F 34.7 °F 37.4 °F 87% 29.98 in 9.0 mi NE 10.4 mph - N/A   Overcast
10:36 AM 41.0 °F 33.9 °F 37.4 °F 87% 29.98 in 9.0 mi NE 12.7 mph - 0.01 in   Overcast
10:56 AM 41.0 °F 33.1 °F 37.4 °F 87% 29.98 in 10.0 mi NNE 15.0 mph - 0.01 in   Overcast
11:16 AM 41.0 °F 34.3 °F 37.4 °F 87% 29.99 in 10.0 mi NNE 11.5 mph - N/A   Overcast
11:36 AM 41.0 °F 34.3 °F 37.4 °F 87% 29.99 in 10.0 mi NE 11.5 mph - N/A   Overcast
11:56 AM 41.0 °F 34.7 °F 37.4 °F 87% 29.99 in 10.0 mi NE 10.4 mph - N/A   Overcast
12:16 PM 41.0 °F 35.2 °F 37.4 °F 87% 30.00 in 10.0 mi NE 9.2 mph - N/A   Overcast
12:36 PM 41.0 °F 35.2 °F 37.4 °F 87% 30.01 in 10.0 mi NE 9.2 mph - N/A   Overcast
12:56 PM 41.0 °F 34.7 °F 37.4 °F 87% 30.01 in 10.0 mi NE 10.4 mph - N/A   Overcast
1:16 PM 41.0 °F 35.2 °F 37.4 °F 87% 30.01 in 10.0 mi NNE 9.2 mph - N/A   Overcast
1:36 PM 41.0 °F 34.7 °F 37.4 °F 87% 30.02 in 10.0 mi NE 10.4 mph - N/A   Overcast
1:56 PM 41.0 °F 34.3 °F 37.4 °F 87% 30.02 in 10.0 mi NE 11.5 mph - N/A   Overcast
2:16 PM 42.8 °F 36.6 °F 39.2 °F 87% 30.02 in 10.0 mi NE 11.5 mph - N/A   Overcast
2:36 PM 42.8 °F 36.2 °F 37.4 °F 81% 30.02 in 10.0 mi NE 12.7 mph - N/A   Overcast
2:56 PM 42.8 °F 37.0 °F 39.2 °F 87% 30.03 in 10.0 mi NE 10.4 mph - N/A   Overcast
3:16 PM 42.8 °F 36.2 °F 37.4 °F 81% 30.03 in 10.0 mi NE 12.7 mph - N/A   Overcast
3:36 PM 42.8 °F 36.2 °F 37.4 °F 81% 30.03 in 10.0 mi NNE 12.7 mph - N/A   Overcast
3:56 PM 41.0 °F 33.9 °F 37.4 °F 87% 30.03 in 10.0 mi NNE 12.7 mph - N/A   Overcast
4:16 PM 42.8 °F 35.8 °F 37.4 °F 81% 30.03 in 10.0 mi NNE 13.8 mph - N/A   Overcast
4:36 PM 42.8 °F 35.4 °F 37.4 °F 81% 30.03 in 10.0 mi NNE 15.0 mph - N/A   Overcast
4:56 PM 42.8 °F 35.4 °F 37.4 °F 81% 30.03 in 10.0 mi NNE 15.0 mph - N/A   Overcast
5:16 PM 42.8 °F 35.8 °F 37.4 °F 81% 30.03 in 10.0 mi NE 13.8 mph - N/A   Overcast
5:36 PM 42.8 °F 35.4 °F 37.4 °F 81% 30.04 in 10.0 mi NE 15.0 mph - N/A   Overcast
5:56 PM 42.8 °F 35.8 °F 37.4 °F 81% 30.04 in 10.0 mi NE 13.8 mph - N/A   Overcast
6:16 PM 42.8 °F 35.4 °F 37.4 °F 81% 30.04 in 10.0 mi NE 15.0 mph - N/A   Overcast
6:36 PM 42.8 °F 35.8 °F 37.4 °F 81% 30.04 in 10.0 mi NE 13.8 mph - N/A   Overcast
6:56 PM 42.8 °F 35.8 °F 39.2 °F 87% 30.04 in 10.0 mi NE 13.8 mph - N/A   Overcast
7:16 PM 42.8 °F 35.8 °F 37.4 °F 81% 30.04 in 10.0 mi NE 13.8 mph - N/A   Overcast
7:36 PM 42.8 °F 35.8 °F 39.2 °F 87% 30.04 in 10.0 mi NE 13.8 mph - N/A   Overcast
7:56 PM 42.8 °F 35.8 °F 37.4 °F 81% 30.04 in 10.0 mi NE 13.8 mph - N/A   Overcast
8:16 PM 42.8 °F 36.2 °F 37.4 °F 81% 30.04 in 10.0 mi NE 12.7 mph - N/A   Overcast
8:36 PM 42.8 °F 36.6 °F 37.4 °F 81% 30.04 in 10.0 mi NE 11.5 mph - N/A   Overcast
8:56 PM 42.8 °F 36.6 °F 37.4 °F 81% 30.04 in 10.0 mi NE 11.5 mph - N/A   Overcast
9:16 PM 42.8 °F 36.2 °F 37.4 °F 81% 30.05 in 10.0 mi ENE 12.7 mph - N/A   Overcast
9:36 PM 42.8 °F 36.2 °F 37.4 °F 81% 30.05 in 10.0 mi NE 12.7 mph - N/A   Overcast
9:56 PM 42.8 °F 37.0 °F 37.4 °F 81% 30.06 in 10.0 mi NE 10.4 mph - N/A   Overcast
10:16 PM 42.8 °F 36.6 °F 37.4 °F 81% 30.06 in 10.0 mi NE 11.5 mph - N/A   Overcast
10:36 PM 42.8 °F 37.0 °F 37.4 °F 81% 30.06 in 10.0 mi ENE 10.4 mph - N/A   Overcast
10:56 PM 42.8 °F 37.0 °F 37.4 °F 81% 30.06 in 5.0 mi ENE 10.4 mph - N/A   Overcast
11:16 PM 42.8 °F 37.0 °F 37.4 °F 81% 30.06 in 6.0 mi NE 10.4 mph - N/A   Overcast
11:36 PM 42.8 °F 38.6 °F 37.4 °F 81% 30.07 in 4.0 mi NE 6.9 mph - N/A   Overcast
11:56 PM 42.8 °F 36.6 °F 39.2 °F 87% 30.07 in 2.5 mi East 11.5 mph - N/A   Overcast